This demonstration page uses our WeatherBlox Daily Observations layout. Learn more.

Left ArrowRight Arrow

Hourly Observations for August 10, 2020

Temp ( °F °C ) Dew Point ( °F °C ) Humidity (%) Winds ( mph kmh ) Pressure ( in mb ) Visibility ( mi km ) Precip ( " mm )
12:52 am 00:52 Clear 78 25.6 72 22.2 82 82 S 13 20 29.95 1014 10 16 0.00 0.00
1:52 am 01:52 Clear 77 25 72 22.2 85 85 S 12 19 29.96 1014 10 16 0.00 0.00
2:52 am 02:52 Clear 76 24.4 72 22.2 88 88 S 8 13 29.96 1015 10 16 0.00 0.00
3:52 am 03:52 Clear 76 24.4 72 22.2 88 88 SSW 9 15 29.96 1015 10 16 0.00 0.00
4:52 am 04:52 Clear 76 24.4 72 22.2 88 88 S 8 13 29.96 1015 10 16 0.00 0.00
5:52 am 05:52 Clear 75 23.9 72 22.2 90 90 S 8 13 29.97 1015 10 16 0.00 0.00
6:52 am 06:52 Sunny 75 23.9 72 22.2 90 90 S 8 13 29.98 1015 10 16 0.00 0.00
7:52 am 07:52 Sunny 76 24.4 72 22.2 88 88 S 8 13 29.99 1016 10 16 0.00 0.00
8:52 am 08:52 Sunny 80 26.7 73 22.8 79 79 S 10 17 29.99 1016 10 16 0.00 0.00
9:52 am 09:52 Sunny 84 28.9 73 22.8 70 70 S 15 24 29.98 1015 10 16 0.00 0.00
10:52 am 10:52 Sunny 88 31.1 74 23.3 63 63 S 14 22 29.97 1015 10 16 0.00 0.00
11:52 am 11:52 Sunny 91 32.8 72 22.2 54 54 SSW 18 30 29.97 1015 10 16 0.00 0.00
12:52 pm 12:52 Sunny 93 33.9 69 20.6 46 46 SW 15 24 29.97 1015 10 16 0.00 0.00
1:52 pm 13:52 Sunny 94 34.4 71 21.7 48 48 SW 20 31 29.95 1014 10 16 0.00 0.00
2:52 pm 14:52 Mostly Sunny 93 33.9 70 21.1 47 47 SW 15 24 29.93 1014 10 16 0.00 0.00
3:52 pm 15:52 Mostly Sunny 95 35 70 21.1 44 44 SW 14 22 29.91 1013 10 16 0.00 0.00
4:52 pm 16:52 Mostly Sunny 94 34.4 69 20.6 44 44 WSW 14 22 29.89 1012 10 16 0.00 0.00
5:52 pm 17:52 Sunny 92 33.3 70 21.1 49 49 SW 13 20 29.89 1012 10 16 0.00 0.00
6:52 pm 18:52 Mostly Sunny 89 31.7 70 21.1 53 53 SW 13 20 29.89 1012 10 16 0.00 0.00
7:52 pm 19:52 Sunny 82 27.8 60 15.6 47 47 W 7 11 29.91 1013 10 16 0.00 0.00
8:52 pm 20:52 Clear 76 24.4 62 16.7 62 62 E 6 9 29.92 1013 10 16 0.00 0.00
9:52 pm 21:52 Clear 75 23.9 65 18.3 71 71 NNW 7 11 29.95 1014 10 16 0.00 0.00
10:52 pm 22:52 Clear 74 23.3 65 18.3 74 74 Calm 29.93 1014 10 16 0.00 0.00
11:52 pm 23:52 Clear 74 23.3 65 18.3 74 74 VRB 3 6 29.94 1014 10 16 0.00 0.00

Powered by AerisWeather